sat.trackr.live / text

‹ back to catalog

FLOCK 4G-3

NORAD 62639 · 2025-009AG

PAYLOAD ACTIVE UNKNOWN

§ Identity

Operator
Country
US
Launch date
2025-01-14
Launch site
AFWTR
Launch vehicle
Mass (kg)
RCS (m²)

Purposes: earth_obs

External: N2YO · Heavens-Above · Gunter

§ Orbital elements

Epoch: 2026-05-25T03:45:03.208032Z

Period
94.19 min
Inclination
97.4026°
Eccentricity
0.0003412
Mean motion
15.28814728 rev/d
Perigee alt
477.0 km
Apogee alt
481.7 km
Semi-major
6,857.5 km
B*
3.7601e-4
RAAN
227.2784°
Arg perigee
52.8236°
Mean anomaly
307.3315°
Rev number
7,538

§ Raw data

FLOCK 4G-31 62639U 25009AG  26145.15628713  .00010460  00000+0  37601-3 0  99932 62639  97.4026 227.2784 0003412  52.8236 307.3315 15.28814728 75385

JSON: /api/v1/satellites/62639 · /tle

For live sub-satellite position, see the globe view (requires WebGL).

§ Visibility from observer

Set your observer location to see the next 7 days of passes ≥ 10°. The values pass through the URL so the page stays shareable.

No JS? Fill the form by hand. The geolocation button needs JavaScript.